Location: Pitton
(51.0667°N, 1.7000°W)
Time: 14:03:26
(UTC+00:00)

Meteor 1-12 Rocket - Pass Details

Date: 17 September 2019
Orbit: 855 x 926 km, 81.2° (Epoch: 19 October)

Event Time Altitude Azimuth Distance (km) Brightness Sun altitude
Rises 19:00:16 0° 178° (S) 3,467 7.2 -7.5°
Reaches altitude 10° 19:02:44 10° 174° (S) 2,523 6.5 -7.9°
Maximum altitude 19:08:20 59° 97° (E) 996 4.3 -8.7°
Drops below altitude 10° 19:13:55 10° 19° (NNE) 2,506 6.6 -9.6°
Sets 19:16:22 0° 16° (NNE) 3,443 7.4 -10.0°
